This demonstration page uses our WeatherBlox Daily Observations layout. Learn more.

Left ArrowRight Arrow

47.50024, -111.30081

Hourly Observations for April 7, 2020

Temp ( °F °C ) Dew Point ( °F °C ) Humidity (%) Winds ( mph kmh ) Pressure ( in mb ) Visibility ( mi km ) Precip ( " mm )
12:53 am 00:53 Clear 41 5 23 -5 49 49 WSW 16 26 29.74 1007 10 16 0.00 0.00
1:53 am 01:53 Clear 41 5 22 -5.6 47 47 SW 17 28 29.73 1007 10 16 0.00 0.00
2:53 am 02:53 Clear 38 3.3 22 -5.6 52 52 SW 10 17 29.75 1008 10 16 0.00 0.00
3:53 am 03:53 Clear 42 5.6 21 -6.1 43 43 SW 16 26 29.72 1007 10 16 0.00 0.00
4:53 am 04:53 Clear 41 5 21 -6.1 45 45 WSW 16 26 29.74 1007 10 16 0.00 0.00
5:53 am 05:53 Clear 40 4.4 22 -5.6 49 49 WSW 15 24 29.76 1008 10 16 0.00 0.00
6:53 am 06:53 Sunny 42 5.6 21 -6.1 43 43 SSW 14 22 29.78 1008 10 16 0.00 0.00
7:53 am 07:53 Sunny 44 6.7 23 -5 43 43 SW 21 33 29.78 1009 10 16 0.00 0.00
8:53 am 08:53 Sunny 46 7.8 24 -4.4 42 42 SW 25 41 29.80 1009 10 16 0.00 0.00
9:53 am 09:53 Sunny 49 9.4 24 -4.4 38 38 SW 28 44 29.81 1009 10 16 0.00 0.00
10:53 am 10:53 Sunny 50 10 24 -4.4 36 36 SW 28 44 29.81 1010 10 16 0.00 0.00
11:53 am 11:53 Sunny 52 11.1 24 -4.4 34 34 SW 29 46 29.82 1010 10 16 0.00 0.00
12:53 pm 12:53 Sunny 52 11.1 22 -5.6 31 31 WSW 32 52 29.81 1010 10 16 0.00 0.00
1:53 pm 13:53 Sunny 55 12.8 19 -7.2 24 24 WSW 26 43 29.80 1009 10 16 0.00 0.00
2:53 pm 14:53 Sunny 56 13.3 17 -8.3 22 22 WSW 28 44 29.80 1009 10 16 0.00 0.00
3:53 pm 15:53 Sunny 58 14.4 9 -12.8 14 14 W 32 52 29.78 1008 10 16 0.00 0.00
4:53 pm 16:53 Sunny 59 15 9 -12.8 13 13 W 30 48 29.78 1009 10 16 0.00 0.00
5:53 pm 17:53 Sunny 57 13.9 7 -13.9 13 13 W 17 28 29.82 1010 10 16 0.00 0.00
6:53 pm 18:53 Sunny 52 11.1 13 -10.6 21 21 NW 9 15 29.86 1011 10 16 0.00 0.00
7:53 pm 19:53 Sunny 47 8.3 15 -9.4 28 28 NNW 8 13 29.89 1012 10 16 0.00 0.00
8:53 pm 20:53 Clear 38 3.3 25 -3.9 60 60 NE 18 30 29.98 1015 10 16 0.00 0.00
9:53 pm 21:53 Clear 34 1.1 22 -5.6 61 61 NE 21 33 30.04 1017 10 16 0.00 0.00
10:53 pm 22:53 Clear 30 -1.1 18 -7.8 61 61 NE 25 41 30.13 1020 10 16 0.00 0.00
11:53 pm 23:53 Mostly Cloudy 29 -1.7 19 -7.2 66 66 NE 17 28 30.20 1023 10 16 0.00 0.00

Powered by AerisWeather